• în România
  • Lista ţărilor
  • Pe 7 zile
  • Temperatura apei
  • Hartă satelitară
  • Meteo pe hartă
  • Widget-uri
  • user-avatar
    Intrare

    Meteo pe oră la Batina

    Astăzi, 23 Septembrie, Sâmbătă

    Timp Temperatura Precipitaţii Vânt Presiune Umiditate
    00:00 +20°C° 0 mm 0 m/s 675 mmHg 49%
    01:00 +22°C° 0 mm 1 m/s 674 mmHg 49%
    02:00 +22°C° 0 mm 1 m/s 674 mmHg 49%
    03:00 +22°C° 0 mm 1 m/s 674 mmHg 48%
    04:00 +22°C° 0,1 mm 1 m/s 674 mmHg 48%
    05:00 +20°C° 0,1 mm 2 m/s 674 mmHg 48%
    06:00 +20°C° 0,1 mm 3 m/s 674 mmHg 48%
    07:00 +21°C° 0,1 mm 2 m/s 675 mmHg 44%
    08:00 +23°C° 0,1 mm 2 m/s 675 mmHg 40%
    09:00 +23°C° 0,1 mm 1 m/s 676 mmHg 36%
    10:00 +25°C° 0,1 mm 2 m/s 676 mmHg 33%
    11:00 +26°C° 0,1 mm 2 m/s 676 mmHg 30%
    12:00 +27°C° 0,1 mm 2 m/s 676 mmHg 26%
    13:00 +27°C° 0 mm 3 m/s 676 mmHg 26%
    14:00 +28°C° 0 mm 3 m/s 675 mmHg 26%
    15:00 +28°C° 0 mm 4 m/s 675 mmHg 26%
    16:00 +27°C° 0,1 mm 4 m/s 675 mmHg 29%
    17:00 +26°C° 0,1 mm 3 m/s 675 mmHg 32%
    18:00 +25°C° 0,1 mm 3 m/s 674 mmHg 35%
    19:00 +25°C° 0,1 mm 3 m/s 675 mmHg 37%
    20:00 +24°C° 0,1 mm 2 m/s 675 mmHg 38%
    21:00 +24°C° 0,1 mm 2 m/s 675 mmHg 40%
    22:00 +23°C° 0 mm 2 m/s 675 mmHg 42%
    23:00 +23°C° 0 mm 2 m/s 674 mmHg 43%

    Mâine, 24 Septembrie, Duminică

    Timp Temperatura Precipitaţii Vânt Presiune Umiditate
    00:00 +21°C° 0 mm 2 m/s 674 mmHg 45%
    01:00 +21°C° 0 mm 2 m/s 674 mmHg 46%
    02:00 +21°C° 0 mm 2 m/s 674 mmHg 47%
    03:00 +20°C° 0 mm 2 m/s 673 mmHg 48%
    04:00 +20°C° 0 mm 2 m/s 674 mmHg 49%
    05:00 +20°C° 0 mm 2 m/s 674 mmHg 50%
    06:00 +20°C° 0 mm 2 m/s 674 mmHg 51%
    07:00 +21°C° 0 mm 2 m/s 674 mmHg 46%
    08:00 +24°C° 0 mm 3 m/s 675 mmHg 41%
    09:00 +25°C° 0 mm 3 m/s 675 mmHg 36%
    10:00 +26°C° 0 mm 3 m/s 675 mmHg 34%
    11:00 +27°C° 0 mm 4 m/s 675 mmHg 32%
    12:00 +27°C° 0 mm 4 m/s 676 mmHg 30%
    13:00 +28°C° 0 mm 4 m/s 675 mmHg 30%
    14:00 +28°C° 0 mm 4 m/s 675 mmHg 30%
    15:00 +28°C° 0 mm 4 m/s 675 mmHg 29%
    16:00 +27°C° 0 mm 4 m/s 675 mmHg 34%
    17:00 +26°C° 0 mm 3 m/s 675 mmHg 38%
    18:00 +25°C° 0 mm 3 m/s 674 mmHg 42%
    19:00 +24°C° 0 mm 3 m/s 675 mmHg 47%
    20:00 +22°C° 0 mm 3 m/s 675 mmHg 52%
    21:00 +23°C° 0 mm 2 m/s 675 mmHg 57%
    22:00 +21°C° 0 mm 2 m/s 675 mmHg 60%
    23:00 +21°C° 0 mm 2 m/s 674 mmHg 63%

    Poimâine, 25 Septembrie, Luni

    Timp Temperatura Precipitaţii Vânt Presiune Umiditate
    00:00 +21°C° 0 mm 1 m/s 674 mmHg 65%
    01:00 +21°C° 0 mm 1 m/s 674 mmHg 67%
    02:00 +20°C° 0 mm 1 m/s 673 mmHg 68%
    03:00 +20°C° 0 mm 1 m/s 673 mmHg 69%
    04:00 +20°C° 0 mm 1 m/s 673 mmHg 68%
    05:00 +18°C° 0 mm 0 m/s 673 mmHg 67%
    06:00 +18°C° 0 mm 0 m/s 673 mmHg 67%
    07:00 +21°C° 0 mm 1 m/s 673 mmHg 59%
    08:00 +22°C° 0 mm 1 m/s 674 mmHg 52%
    09:00 +24°C° 0 mm 1 m/s 674 mmHg 45%
    10:00 +25°C° 0 mm 2 m/s 674 mmHg 40%
    11:00 +26°C° 0 mm 2 m/s 675 mmHg 35%
    12:00 +27°C° 0 mm 3 m/s 675 mmHg 31%
    13:00 +27°C° 0 mm 3 m/s 674 mmHg 29%
    14:00 +27°C° 0 mm 3 m/s 674 mmHg 28%
    15:00 +28°C° 0 mm 3 m/s 674 mmHg 26%
    16:00 +27°C° 0 mm 3 m/s 674 mmHg 28%
    17:00 +26°C° 0 mm 3 m/s 674 mmHg 29%
    18:00 +25°C° 0 mm 3 m/s 674 mmHg 30%
    19:00 +25°C° 0 mm 2 m/s 674 mmHg 33%
    20:00 +24°C° 0 mm 2 m/s 674 mmHg 36%
    21:00 +23°C° 0 mm 2 m/s 674 mmHg 38%
    22:00 +21°C° 0 mm 2 m/s 674 mmHg 40%
    23:00 +22°C° 0 mm 1 m/s 673 mmHg 43%

    26 Septembrie, Marţi

    Timp Temperatura Precipitaţii Vânt Presiune Umiditate
    00:00 +21°C° 0 mm 1 m/s 673 mmHg 45%
    01:00 +20°C° 0 mm 1 m/s 673 mmHg 46%
    02:00 +20°C° 0 mm 1 m/s 672 mmHg 48%
    03:00 +19°C° 0 mm 1 m/s 672 mmHg 50%
    04:00 +19°C° 0 mm 1 m/s 672 mmHg 52%
    05:00 +19°C° 0 mm 1 m/s 672 mmHg 53%
    06:00 +19°C° 0 mm 1 m/s 672 mmHg 55%
    07:00 +21°C° 0 mm 1 m/s 673 mmHg 49%
    08:00 +21°C° 0 mm 2 m/s 673 mmHg 43%
    09:00 +24°C° 0 mm 2 m/s 674 mmHg 37%
    10:00 +25°C° 0 mm 3 m/s 674 mmHg 35%
    11:00 +26°C° 0 mm 3 m/s 674 mmHg 32%
    12:00 +27°C° 0 mm 4 m/s 674 mmHg 29%
    13:00 +27°C° 0 mm 3 m/s 674 mmHg 28%
    14:00 +27°C° 0 mm 3 m/s 673 mmHg 27%
    15:00 +27°C° 0 mm 3 m/s 673 mmHg 27%
    16:00 +27°C° 0 mm 3 m/s 673 mmHg 28%
    17:00 +26°C° 0 mm 3 m/s 673 mmHg 30%
    18:00 +25°C° 0 mm 3 m/s 673 mmHg 31%
    19:00 +24°C° 0 mm 2 m/s 673 mmHg 34%
    20:00 +23°C° 0 mm 2 m/s 673 mmHg 37%
    21:00 +23°C° 0 mm 1 m/s 673 mmHg 39%
    22:00 +22°C° 0 mm 1 m/s 673 mmHg 41%
    23:00 +22°C° 0 mm 1 m/s 673 mmHg 43%

    27 Septembrie, Miercuri

    Timp Temperatura Precipitaţii Vânt Presiune Umiditate
    00:00 +21°C° 0 mm 1 m/s 673 mmHg 44%
    01:00 +20°C° 0 mm 1 m/s 673 mmHg 46%
    02:00 +20°C° 0 mm 1 m/s 672 mmHg 48%
    03:00 +20°C° 0 mm 1 m/s 672 mmHg 50%
    04:00 +17°C° 0 mm 0 m/s 672 mmHg 50%
    05:00 +17°C° 0 mm 0 m/s 672 mmHg 51%
    06:00 +17°C° 0 mm 0 m/s 673 mmHg 52%
    07:00 +21°C° 0 mm 1 m/s 673 mmHg 47%
    08:00 +23°C° 0 mm 1 m/s 674 mmHg 42%
    09:00 +24°C° 0 mm 1 m/s 675 mmHg 36%
    10:00 +25°C° 0 mm 2 m/s 675 mmHg 34%
    11:00 +26°C° 0 mm 2 m/s 675 mmHg 31%
    12:00 +27°C° 0 mm 3 m/s 675 mmHg 28%
    13:00 +27°C° 0 mm 3 m/s 675 mmHg 28%
    14:00 +27°C° 0 mm 3 m/s 674 mmHg 27%
    15:00 +27°C° 0 mm 3 m/s 674 mmHg 27%
    16:00 +26°C° 0,1 mm 3 m/s 674 mmHg 31%
    17:00 +26°C° 0,1 mm 3 m/s 674 mmHg 34%
    18:00 +25°C° 0,1 mm 3 m/s 674 mmHg 38%
    19:00 +24°C° 0,1 mm 3 m/s 674 mmHg 42%
    20:00 +23°C° 0,1 mm 2 m/s 675 mmHg 47%
    21:00 +21°C° 0,1 mm 2 m/s 675 mmHg 52%
    22:00 +21°C° 0 mm 2 m/s 674 mmHg 55%
    23:00 +20°C° 0 mm 2 m/s 674 mmHg 59%

    28 Septembrie, Joi

    Timp Temperatura Precipitaţii Vânt Presiune Umiditate
    00:00 +19°C° 0 mm 2 m/s 674 mmHg 62%
    01:00 +19°C° 0 mm 2 m/s 674 mmHg 65%
    02:00 +19°C° 0 mm 2 m/s 674 mmHg 68%
    03:00 +18°C° 0 mm 2 m/s 673 mmHg 70%
    04:00 +18°C° 0 mm 2 m/s 674 mmHg 72%
    05:00 +18°C° 0 mm 2 m/s 674 mmHg 74%
    06:00 +17°C° 0 mm 2 m/s 674 mmHg 76%
    07:00 +18°C° 0 mm 2 m/s 674 mmHg 69%
    08:00 +20°C° 0 mm 2 m/s 675 mmHg 63%
    09:00 +21°C° 0 mm 2 m/s 675 mmHg 56%
    10:00 +23°C° 0 mm 2 m/s 675 mmHg 51%
    11:00 +24°C° 0 mm 2 m/s 675 mmHg 46%
    12:00 +25°C° 0 mm 3 m/s 676 mmHg 41%
    13:00 +25°C° 0 mm 3 m/s 675 mmHg 39%
    14:00 +25°C° 0 mm 3 m/s 675 mmHg 37%
    15:00 +25°C° 0 mm 4 m/s 675 mmHg 34%
    16:00 +25°C° 0 mm 4 m/s 675 mmHg 37%
    17:00 +23°C° 0 mm 4 m/s 675 mmHg 39%
    18:00 +22°C° 0 mm 4 m/s 675 mmHg 42%
    19:00 +21°C° 0 mm 3 m/s 675 mmHg 48%
    20:00 +20°C° 0 mm 3 m/s 675 mmHg 54%
    21:00 +19°C° 0 mm 3 m/s 676 mmHg 60%
    22:00 +19°C° 0 mm 2 m/s 675 mmHg 64%
    23:00 +18°C° 0 mm 2 m/s 675 mmHg 68%
    Arată mai mult